Wind_Speed
12 11 13 17 17 20 20 21 24 25 24 26 22 25 28 24 33 30 33 28 33 41 31 32 40 41 49 39 32 28 31 29 27 29 31 36 37 37 35 31 29 27 30 33
12 14 14 14 16 17 19 22 26 25 23 22 24 29 28 22 22 27 33 34 36 31 33 44 42 29 25 21 22 23 28 30 31 31 36 35 28 23 26 24 25 26 30 31
12 16 18 16 18 20 20 21 22 24 21 21 25 27 25 27 26 28 30 29 36 38 37 33 32 28 24 25 26 32 34 33 34 30 31 29 27 31 20 21 24 25 30 32
13 17 18 18 20 16 19 19 21 22 20 15 17 17 22 22 25 22 27 36 31 26 28 34 31 29 28 28 24 25 29 32 32 33 32 31 31 30 33 22 23 28 28 31
15 15 15 17 18 18 22 22 23 23 21 22 24 15 18 21 25 21 22 33 38 27 32 34 33 31 31 36 36 37 38 37 38 38 32 35 29 25 17 25 25 25 28 26
20 12 14 9 16 21 19 21 24 23 18 19 24 21 20 20 22 25 22 30 34 35 41 39 39 42 42 39 38 36 38 40 40 40 38 31 31 30 24 25 28 32 31 26
15 11 3 5 10 21 14 14 11 16 15 17 23 22 18 24 23 25 27 29 30 24 27 24 30 32 34 32 34 31 31 34 34 36 36 34 31 27 26 26 30 30 27 25
13 14 8 3 10 17 16 16 7 13 15 16 19 17 13 22 23 30 37 32 36 16 23 32 18 22 31 32 29 33 30 31 29 32 33 33 31 30 27 30 30 25 21 20
13 19 17 19 17 12 17 15 14 11 22 19 18 24 14 21 24 23 26 34 15 17 22 15 16 17 16 21 17 24 26 24 22 25 28 29 29 29 29 24 21 14 19 18
15 19 18 24 23 14 24 17 15 7 6 16 16 17 14 13 23 18 23 17 23 26 14 11 18 20 20 22 19 21 25 19 22 23 25 25 27 28 22 24 21 17 23 20
16 13 18 18 19 19 14 16 9 5 5 6 12 11 11 17 21 26 29 29 14 4 12 17 13 8 6 14 17 20 17 21 19 23 24 24 27 26 25 25 21 24 24 22
11 6 15 21 23 17 9 15 5 8 10 11 13 19 15 21 26 26 33 11 14 7 14 7 16 16 12 13 17 19 22 22 23 22 25 28 28 28 30 27 26 27 24 18
5 5 12 14 14 9 8 21 17 14 9 13 12 11 13 20 21 32 32 43 23 8 22 7 11 17 19 21 22 24 25 24 26 26 28 28 26 26 27 25 22 20 18 17
9 12 15 14 19 10 11 21 21 17 12 18 13 16 13 9 9 21 36 35 22 9 25 2 9 12 17 28 27 27 27 27 27 25 25 27 26 27 25 22 21 20 18 17
2 8 15 19 21 22 23 24 25 21 22 20 18 17 11 10 8 15 31 43 32 14 21 6 9 8 14 29 30 27 30 25 28 28 28 26 25 24 22 21 19 18 16 17
5 8 14 21 21 22 24 22 24 25 22 23 22 17 11 8 25 25 31 32 16 14 17 7 3 10 16 26 28 30 30 29 30 28 25 24 23 21 20 20 19 19 18 14
5 6 10 21 18 16 15 10 18 20 19 10 12 13 16 17 14 14 21 19 17 12 13 10 2 14 19 29 29 30 31 29 28 25 23 22 20 20 19 20 19 17 15 16
6 2 2 8 11 10 8 11 17 19 19 17 15 15 20 17 21 19 25 26 16 16 12 16 3 18 26 22 29 30 28 26 23 22 22 21 21 18 18 21 17 15 17 16
9 1 3 4 5 13 12 8 10 16 23 18 15 14 13 22 24 19 24 22 14 18 8 7 8 17 21 26 28 28 25 24 23 23 21 21 17 17 20 20 19 17 16 14
10 7 3 4 5 4 6 10 12 14 15 14 16 15 17 18 10 5 27 24 11 3 12 14 11 21 26 26 27 27 25 24 22 21 21 16 22 22 18 18 17 15 13 14
5 3 7 9 5 5 2 1 2 3 8 25 24 24 26 15 16 30 31 26 22 14 16 19 14 29 32 27 28 26 24 23 23 21 17 16 19 18 17 18 17 12 12 14
3 3 3 2 4 4 9 5 3 6 25 28 25 24 26 26 28 28 27 24 23 18 18 15 11 38 38 27 29 24 23 26 23 16 18 19 14 17 18 16 14 15 14 17
4 4 3 5 4 13 18 12 18 21 23 21 26 25 27 31 27 28 28 23 28 21 24 13 19 37 34 30 27 25 27 24 20 19 22 17 16 17 16 13 16 15 15 14
11 18 6 4 5 5 17 20 17 21 22 25 27 33 37 31 27 27 25 26 30 23 16 9 30 35 30 30 26 25 25 21 20 22 20 18 15 20 12 13 14 13 13 15
15 12 8 11 7 13 3 13 20 25 21 27 33 30 23 20 25 24 26 29 28 22 18 15 28 32 32 27 26 29 24 26 21 18 16 18 15 15 13 10 12 12 13 12
3 7 4 3 7 1 11 20 22 22 22 27 31 23 20 21 21 21 27 21 19 18 10 22 29 29 31 28 27 28 26 24 22 19 18 19 18 13 10 10 9 8 9 11
Wind_Direction
306 300 273 283 279 278 299 294 284 282 292 298 287 269 261 245 229 234 246 251 247 253 253 252 241 241 233 230 222 233 243 244 242 245 245 243 250 257 264 265 259 237 240 239
279 262 266 287 287 276 281 282 279 286 292 291 285 279 279 274 257 250 227 229 244 258 249 249 251 250 225 206 212 234 242 246 249 255 249 249 252 258 257 251 248 236 235 238
302 303 307 298 291 286 275 273 278 285 291 281 281 281 278 273 280 275 277 270 230 232 251 254 236 238 243 243 238 246 252 255 257 255 250 250 248 235 230 228 231 236 236 237
300 294 284 281 272 273 273 273 277 281 280 271 273 275 262 269 263 259 266 273 268 251 249 253 253 245 236 235 241 240 244 250 251 253 247 238 241 242 227 226 230 237 233 236
289 291 293 289 307 333 310 313 304 286 279 277 266 260 269 268 269 254 251 240 261 256 255 245 246 250 251 255 256 253 249 246 247 246 243 236 225 228 218 216 217 226 236 220
267 278 276 332 310 303 299 290 283 289 274 263 265 261 264 265 269 268 265 251 238 236 242 249 245 245 250 250 245 241 243 243 241 236 237 233 221 222 219 224 227 223 227 218
310 320 329 17 301 321 281 293 287 258 252 262 257 255 260 264 265 266 268 274 265 260 244 237 240 234 239 245 249 241 239 235 230 232 227 234 224 223 213 214 215 218 227 209
322 307 353 168 242 266 273 279 270 282 261 274 291 284 278 311 305 274 269 266 258 258 285 235 241 246 236 234 228 238 232 226 228 221 222 228 235 215 210 214 217 225 197 198
302 294 295 295 300 300 291 287 239 241 270 263 275 286 256 259 260 268 264 257 235 256 263 251 242 246 244 234 228 222 211 225 232 226 219 213 209 191 202 204 218 187 179 188
310 303 301 300 299 278 267 290 294 280 302 279 261 267 272 308 346 264 255 261 250 238 226 256 249 243 242 236 230 208 198 200 201 199 198 193 188 183 191 183 179 174 177 186
317 313 307 304 283 282 300 259 261 10 230 261 276 273 63 354 352 334 329 247 226 221 245 243 229 252 216 199 202 186 185 189 188 185 182 182 177 176 177 169 174 180 171 173
337 293 288 287 286 310 192 283 256 280 292 288 287 279 18 13 351 338 333 55 283 334 286 239 253 244 230 201 177 176 176 172 170 173 174 169 168 170 164 159 164 165 169 172
351 287 308 297 281 41 352 311 306 297 284 264 268 294 44 24 340 329 332 315 295 334 303 195 230 229 217 202 184 168 166 168 172 170 169 166 164 165 166 171 176 172 164 161
279 266 259 277 289 286 250 276 276 284 283 283 273 306 290 21 308 329 308 294 282 320 300 67 201 209 207 183 167 165 163 169 165 167 161 155 155 160 159 161 156 163 161 163
264 264 276 279 283 278 274 264 276 243 246 265 286 289 291 201 194 260 256 266 292 315 317 68 206 189 143 147 148 156 149 150 148 148 153 155 156 156 159 160 158 153 155 166
320 275 293 285 281 279 275 274 272 271 271 268 271 278 304 245 182 224 256 266 285 300 312 356 215 187 142 146 154 155 146 149 148 147 152 154 155 158 158 155 154 157 167 165
283 286 290 277 292 290 291 304 307 328 323 349 307 324 316 334 340 317 311 320 310 298 292 325 292 205 153 148 151 152 146 143 145 148 152 156 155 154 160 162 161 170 169 169
213 223 234 286 295 270 309 347 330 318 310 304 331 324 312 315 300 292 291 313 277 295 285 334 293 219 155 152 154 142 140 144 149 153 155 155 161 161 165 158 169 168 171 171
196 180 279 281 287 287 295 358 344 338 314 352 352 332 317 308 308 282 285 278 275 291 315 332 308 216 155 153 147 143 146 153 154 156 158 162 167 160 159 170 171 171 184 178
162 206 203 298 275 281 53 38 359 343 281 23 349 325 316 310 284 305 337 336 266 306 329 295 287 203 171 154 155 148 156 157 160 159 159 160 150 154 169 175 175 183 177 160
258 212 228 260 262 260 139 309 191 231 315 325 324 312 307 304 305 315 308 311 317 304 303 306 279 189 171 159 154 155 161 164 147 137 147 167 175 161 174 176 170 182 162 156
282 271 264 283 276 299 265 25 212 290 296 299 303 298 293 291 289 290 291 298 302 292 297 277 238 181 166 158 157 161 164 143 138 139 156 159 152 157 166 174 177 175 170 163
317 287 261 205 252 319 333 309 295 294 278 291 297 295 294 288 280 281 285 283 287 292 308 281 202 176 163 156 158 160 145 142 140 146 153 141 142 159 156 176 173 184 180 172
301 300 248 273 251 288 323 308 315 307 295 308 301 297 291 274 263 261 273 274 285 282 275 255 167 167 158 148 158 149 138 141 142 152 140 143 146 159 166 176 185 180 179 182
288 309 304 281 304 313 324 320 322 307 314 312 310 304 289 281 258 252 261 267 281 283 274 208 176 153 142 154 155 150 147 144 146 157 148 153 160 166 175 182 180 190 191 186
345 271 326 293 29 341 298 322 322 328 317 315 316 308 302 295 279 254 260 265 271 272 268 182 166 154 148 157 154 150 150 147 160 150 150 154 164 156 149 153 150 146 168 169
Height
1454 1454 1450 1442 1436 1431 1432 1432 1427 1419 1416 1418 1415 1403 1395 1396 1402 1404 1409 1411 1411 1412 1415 1417 1420 1421 1423 1424 1428 1431 1435 1438 1443 1446 1447 1446 1445 1447 1447 1448 1450 1452 1452 1451
1453 1449 1441 1438 1436 1437 1439 1439 1433 1425 1423 1424 1416 1405 1394 1392 1391 1392 1396 1399 1403 1405 1406 1409 1411 1415 1416 1417 1421 1425 1427 1431 1434 1439 1439 1439 1440 1440 1441 1442 1444 1446 1446 1446
1453 1449 1445 1443 1443 1443 1440 1439 1435 1433 1427 1424 1419 1414 1400 1391 1389 1389 1388 1390 1391 1396 1398 1402 1403 1406 1409 1411 1414 1418 1420 1422 1426 1429 1431 1432 1433 1434 1436 1437 1439 1439 1441 1442
1453 1449 1446 1443 1441 1441 1441 1431 1428 1428 1428 1431 1418 1418 1403 1394 1388 1388 1387 1387 1386 1387 1391 1394 1396 1399 1401 1404 1408 1411 1414 1416 1418 1421 1423 1424 1424 1425 1428 1433 1433 1433 1436 1438
1452 1446 1443 1442 1440 1438 1435 1429 1427 1424 1422 1422 1418 1418 1397 1397 1386 1383 1381 1383 1383 1382 1386 1388 1389 1392 1395 1398 1401 1403 1406 1408 1410 1411 1414 1416 1419 1422 1424 1426 1427 1429 1430 1435
1443 1439 1439 1443 1446 1443 1437 1434 1430 1423 1419 1421 1411 1411 1398 1393 1386 1381 1374 1373 1373 1375 1377 1379 1382 1385 1388 1391 1392 1395 1396 1398 1400 1404 1406 1409 1413 1416 1420 1419 1421 1422 1427 1430
1439 1437 1440 1449 1450 1444 1433 1434 1447 1429 1420 1410 1400 1402 1389 1382 1380 1376 1373 1368 1366 1366 1367 1370 1373 1375 1378 1381 1384 1386 1388 1389 1391 1396 1398 1401 1408 1411 1414 1413 1414 1419 1423 1427
1447 1449 1443 1446 1448 1445 1434 1434 1448 1443 1421 1406 1387 1394 1381 1379 1377 1372 1368 1364 1362 1361 1362 1363 1365 1367 1368 1372 1375 1376 1380 1382 1385 1389 1390 1394 1401 1406 1407 1408 1412 1417 1421 1425
1449 1444 1436 1434 1432 1436 1428 1429 1424 1439 1430 1410 1395 1384 1376 1375 1371 1369 1361 1358 1355 1358 1359 1359 1360 1362 1363 1365 1368 1369 1373 1378 1380 1382 1385 1389 1396 1402 1402 1407 1412 1416 1420 1424
1444 1445 1439 1433 1429 1431 1426 1417 1420 1416 1428 1422 1398 1388 1381 1372 1378 1363 1358 1353 1354 1353 1354 1357 1358 1359 1359 1361 1363 1365 1369 1373 1376 1380 1383 1388 1393 1398 1401 1405 1411 1415 1420 1423
1444 1445 1441 1437 1427 1420 1416 1411 1410 1433 1428 1417 1407 1390 1380 1388 1395 1391 1375 1354 1349 1348 1352 1353 1353 1354 1353 1355 1359 1361 1366 1371 1374 1378 1383 1386 1391 1396 1400 1406 1410 1414 1419 1423
1449 1452 1447 1433 1419 1416 1420 1418 1427 1420 1415 1402 1402 1380 1383 1400 1396 1397 1386 1354 1357 1350 1352 1352 1352 1352 1351 1352 1353 1360 1365 1370 1374 1378 1382 1385 1390 1396 1401 1405 1410 1414 1418 1423
1459 1448 1449 1431 1413 1432 1433 1418 1412 1404 1406 1405 1413 1394 1390 1402 1410 1402 1394 1374 1359 1350 1350 1347 1346 1347 1347 1349 1353 1359 1365 1368 1372 1377 1381 1386 1391 1396 1401 1405 1410 1415 1419 1423
1454 1449 1449 1443 1432 1431 1438 1421 1409 1403 1404 1386 1387 1392 1387 1405 1409 1405 1399 1385 1358 1349 1348 1342 1344 1343 1343 1344 1349 1355 1361 1366 1372 1378 1384 1389 1394 1398 1403 1407 1412 1415 1419 1422
1450 1449 1440 1431 1422 1415 1408 1404 1390 1388 1387 1383 1378 1377 1375 1384 1392 1398 1391 1373 1357 1348 1345 1343 1345 1343 1339 1339 1347 1357 1362 1368 1374 1380 1386 1391 1396 1400 1404 1408 1412 1415 1419 1423
1447 1443 1433 1424 1417 1410 1400 1389 1379 1371 1372 1370 1365 1366 1365 1363 1370 1379 1372 1363 1356 1350 1346 1344 1345 1346 1343 1344 1351 1356 1363 1371 1377 1382 1388 1393 1397 1401 1405 1408 1412 1416 1419 1422
1451 1443 1436 1422 1413 1402 1401 1385 1379 1375 1369 1377 1377 1374 1373 1369 1365 1363 1357 1357 1352 1351 1350 1347 1348 1348 1343 1348 1354 1360 1365 1372 1379 1385 1390 1394 1398 1401 1405 1409 1413 1416 1419 1422
1444 1447 1445 1427 1415 1415 1387 1381 1386 1384 1382 1379 1375 1373 1373 1368 1367 1365 1361 1356 1353 1350 1349 1349 1348 1345 1340 1350 1356 1362 1368 1375 1381 1386 1391 1394 1397 1402 1406 1410 1413 1416 1419 1422
1434 1446 1438 1428 1420 1406 1396 1397 1400 1394 1381 1381 1378 1377 1376 1371 1363 1358 1357 1352 1350 1350 1350 1350 1350 1344 1344 1353 1358 1364 1370 1377 1382 1386 1390 1393 1397 1402 1406 1410 1414 1417 1419 1423
1435 1440 1440 1430 1423 1412 1410 1415 1414 1408 1386 1393 1394 1389 1384 1377 1367 1356 1357 1351 1348 1350 1349 1349 1349 1350 1352 1355 1362 1365 1371 1377 1382 1386 1390 1395 1398 1403 1407 1411 1415 1416 1420 1422
1426 1430 1430 1424 1418 1407 1414 1412 1413 1409 1392 1390 1396 1389 1383 1376 1370 1368 1361 1354 1349 1347 1346 1345 1346 1347 1351 1356 1362 1367 1372 1377 1381 1386 1391 1395 1399 1402 1407 1411 1415 1417 1420 1422
1424 1424 1416 1419 1413 1404 1408 1407 1411 1404 1398 1393 1388 1388 1382 1377 1372 1367 1360 1354 1348 1344 1342 1343 1343 1342 1351 1357 1363 1368 1373 1377 1382 1387 1391 1396 1400 1403 1407 1411 1415 1417 1419 1421
1420 1418 1422 1419 1408 1401 1404 1404 1402 1399 1394 1390 1386 1381 1378 1373 1371 1364 1358 1351 1345 1340 1341 1342 1330 1343 1350 1356 1363 1368 1372 1378 1383 1389 1393 1397 1401 1405 1408 1412 1415 1417 1419 1421
1412 1406 1407 1410 1401 1403 1402 1400 1397 1394 1388 1384 1381 1376 1369 1363 1363 1359 1353 1347 1342 1337 1340 1340 1329 1345 1351 1355 1363 1369 1374 1380 1385 1390 1394 1398 1403 1407 1410 1413 1414 1416 1418 1420
1410 1403 1404 1398 1397 1398 1398 1397 1393 1387 1383 1377 1370 1366 1361 1357 1352 1350 1346 1344 1339 1334 1333 1335 1339 1344 1348 1356 1363 1368 1376 1381 1386 1391 1396 1400 1404 1408 1410 1411 1413 1414 1417 1419
1406 1410 1403 1403 1402 1402 1399 1394 1388 1382 1377 1371 1364 1356 1351 1350 1347 1346 1343 1341 1337 1332 1331 1334 1339 1344 1349 1356 1363 1369 1376 1381 1387 1392 1397 1401 1404 1407 1409 1411 1413 1415 1417 1420